Temperature
17 17 17 17 17 17 17 17 17 17 17 17 17 17 17 17 17 17 17 17 17 17 17 17 16 16 16 16 16 16 16 16 16 16 16 16 16 16 16 16 16 16 15
17 17 17 17 17 17 17 17 17 17 17 17 17 17 17 17 17 17 17 17 17 17 17 16 16 16 16 16 16 16 16 16 16 16 16 16 16 16 16 16 16 16 15
17 17 17 17 17 17 17 17 17 17 17 17 17 17 17 17 17 16 17 17 17 17 17 17 16 16 16 16 16 16 16 16 16 16 16 16 16 16 16 16 15 15 15
17 17 17 17 17 17 17 17 17 17 17 17 17 17 17 16 16 16 16 16 16 17 16 16 16 16 16 16 16 16 16 16 16 16 16 16 16 16 16 16 16 15 15
17 17 17 17 17 17 17 17 17 17 17 17 17 17 17 17 16 17 16 16 16 16 16 16 16 16 16 16 16 16 16 16 16 16 16 16 16 16 16 16 16 15 15
17 17 17 17 17 17 16 16 16 16 16 16 17 17 17 17 17 17 17 17 17 16 16 16 16 16 16 16 16 16 16 16 16 15 15 16 16 16 16 15 15 15 15
17 17 17 17 17 17 16 16 16 16 16 16 17 17 17 17 17 16 17 17 17 16 16 16 16 16 16 16 16 16 16 16 15 15 15 15 15 15 15 15 15 15 15
17 17 17 17 17 16 16 16 16 16 16 16 17 17 18 17 16 17 16 16 17 16 16 16 16 16 16 16 16 16 15 15 15 15 15 15 15 15 15 15 15 15 15
17 17 17 17 16 16 16 16 16 16 16 16 16 17 18 19 18 17 16 16 16 16 17 16 16 16 16 16 15 15 15 15 15 15 15 15 15 15 15 15 15 15 15
17 17 16 16 16 16 16 16 16 16 16 16 16 16 17 17 18 18 17 16 16 16 16 16 16 16 15 15 15 15 15 15 15 15 15 15 15 15 15 15 15 15 15
17 16 16 16 16 16 16 15 15 16 16 16 17 16 16 16 17 18 18 17 17 16 16 16 16 16 15 15 15 15 15 15 15 15 15 15 15 15 15 15 15 15 15
16 16 16 16 16 16 15 15 15 15 15 15 16 16 17 17 17 18 18 17 17 17 16 16 16 16 16 15 15 15 15 15 15 15 15 15 14 14 14 14 14 14 14
16 16 16 16 16 16 15 15 15 15 15 15 15 16 16 16 17 17 17 18 17 17 16 16 16 15 15 15 15 15 15 15 15 14 14 14 14 14 14 14 14 14 14
17 16 16 16 16 16 15 15 15 15 15 15 15 15 15 16 16 16 17 17 17 18 17 16 16 15 15 15 15 15 14 14 14 14 14 14 14 14 14 14 14 14 14
17 16 16 16 16 16 15 15 15 15 15 15 15 15 15 15 15 15 16 16 17 18 18 17 16 15 15 15 15 14 14 14 14 14 14 14 14 14 14 14 14 14 14
16 16 16 16 16 15 15 15 15 15 15 15 15 15 15 15 15 15 15 15 15 16 17 17 16 16 15 15 14 14 14 14 14 14 14 14 14 14 14 14 14 14 14
16 16 16 16 16 15 15 15 15 15 15 15 14 14 15 14 15 15 15 15 15 15 16 16 16 15 14 14 14 14 14 14 14 14 14 14 14 14 14 14 14 14 14
16 16 16 16 16 15 15 15 15 15 15 15 15 15 15 14 14 15 14 14 15 14 15 15 15 15 14 14 14 14 14 14 14 14 14 14 14 14 14 14 14 14 14
16 16 16 16 16 16 15 15 15 15 15 15 15 15 15 14 14 14 14 14 14 14 14 14 15 15 14 14 13 14 14 14 14 14 14 14 14 14 14 14 14 14 14
16 16 16 16 16 16 15 15 15 15 15 15 15 14 14 14 14 14 14 14 14 14 14 14 14 14 14 14 14 14 14 14 14 14 14 14 14 14 14 14 14 14 14
16 16 16 16 16 16 16 15 15 15 15 15 14 14 14 14 14 14 14 14 14 14 14 14 14 14 14 14 14 14 14 14 14 14 14 14 14 14 14 13 14 14 14
16 16 16 16 16 16 16 16 15 15 15 15 14 14 14 14 14 14 14 14 14 13 14 14 14 14 14 14 13 13 13 14 14 14 13 13 14 13 13 13 13 13 13
16 16 16 16 16 16 16 16 16 15 15 14 14 14 14 14 14 14 14 14 14 14 14 13 13 13 13 13 13 13 13 13 13 13 13 13 13 13 13 13 13 13 13
16 16 16 16 16 16 16 16 15 15 14 14 14 14 14 14 13 13 13 13 13 13 13 13 13 13 13 13 13 12 12 12 12 12 12 12 13 13 13 13 13 13 13
16 16 16 15 15 15 15 15 15 14 14 14 14 14 13 13 13 13 13 13 13 13 13 13 13 13 13 12 12 12 12 11 12 12 12 12 12 12 12 13 13 12 12
16 15 15 15 15 15 15 15 14 14 14 13 13 13 13 13 13 13 12 12 12 12 12 12 12 12 12 12 12 11 11 11 11 12 12 12 12 12 12 12 12 12 12
Wind_Speed
6 6 5 5 6 5 6 4 4 4 3 3 3 3 3 2 2 2 6 9 8 8 7 8 8 8 8 8 8 8 8 8 8 8 8 9 9 9 8 8 8 8 8
6 5 5 5 4 5 4 4 4 4 3 3 3 3 3 3 3 3 3 8 10 9 8 8 9 9 9 9 8 8 8 9 9 10 10 9 10 10 10 9 9 9 9
6 5 5 5 5 5 5 4 4 4 4 4 3 3 3 2 2 3 3 4 7 11 10 9 9 9 9 9 9 9 9 9 9 11 11 11 11 11 11 11 10 10 10
7 6 5 5 5 5 5 4 4 4 3 3 3 2 2 3 3 4 4 5 4 5 10 11 9 9 10 9 9 9 10 10 10 11 12 13 13 13 13 13 13 12 12
8 7 5 4 6 5 4 4 3 3 3 2 3 3 3 3 4 5 4 4 4 4 5 10 10 9 9 9 9 9 10 10 11 12 13 13 14 15 15 15 15 15 14
8 7 6 6 6 5 4 3 3 2 2 3 3 2 3 3 4 3 4 4 4 5 5 5 7 9 10 8 8 9 9 10 11 13 13 13 14 16 16 16 17 17 16
9 8 6 6 6 5 5 5 4 4 4 3 4 4 4 4 3 3 3 3 3 3 3 4 5 4 8 10 10 9 9 9 10 11 12 13 13 14 15 17 17 18 18
10 9 7 7 6 5 5 5 4 4 3 3 4 4 4 5 5 4 4 4 3 4 4 5 4 4 4 5 8 9 8 8 9 10 11 12 13 13 14 15 16 17 18
10 8 8 7 6 7 6 6 6 6 4 4 4 4 3 3 4 5 4 4 4 4 4 4 5 4 5 4 5 9 7 6 6 8 9 11 11 12 13 14 16 16 17
10 9 9 8 7 6 5 7 6 5 5 5 4 3 4 4 3 4 6 5 4 4 3 4 4 4 5 4 3 4 5 4 3 4 5 7 9 11 12 13 14 15 16
10 10 9 8 7 6 6 5 5 5 5 5 4 4 4 4 6 5 3 5 5 5 5 4 3 3 3 3 4 5 5 3 3 3 4 4 6 7 9 11 12 13 14
9 10 10 8 8 6 7 6 6 6 5 4 4 4 5 4 5 5 4 5 5 4 4 3 4 4 4 4 3 6 5 4 3 3 3 4 5 5 6 8 9 10 11
9 11 10 9 8 7 7 7 6 5 6 5 5 5 5 4 4 4 5 4 4 4 4 6 5 5 5 4 4 6 6 5 4 4 4 5 5 6 6 7 8 8 9
9 11 11 10 9 9 9 7 7 7 6 6 6 4 4 5 4 4 5 5 5 5 6 6 4 5 4 5 3 6 6 7 6 6 7 7 7 8 8 9 9 10 10
9 11 11 11 10 10 9 9 7 7 6 7 7 7 6 4 5 4 4 5 6 6 5 5 6 5 5 6 4 7 7 7 8 9 10 10 10 10 11 11 12 12 12
10 11 11 11 11 11 10 9 8 8 8 7 6 5 6 6 5 5 5 5 6 7 7 3 5 5 4 6 6 8 9 8 13 13 12 12 12 13 13 13 13 14 14
11 11 11 11 11 11 11 10 10 9 9 9 8 8 8 7 6 6 6 6 6 6 7 6 5 4 5 7 6 8 10 10 11 15 14 14 14 15 15 15 15 15 16
11 11 11 11 12 12 11 11 11 10 10 10 10 9 9 8 8 8 7 7 7 6 7 8 6 6 7 8 7 8 10 10 11 10 13 14 16 17 17 17 17 18 18
11 11 11 12 12 11 11 12 11 11 11 10 10 10 10 9 9 8 8 8 7 7 7 8 8 6 7 7 7 9 10 9 12 11 13 17 18 18 18 19 19 19 19
10 11 11 11 11 11 11 11 11 11 10 10 10 10 10 11 11 10 9 10 9 8 8 9 9 8 7 7 7 8 9 8 9 10 10 11 14 18 20 21 21 22 22
10 10 10 10 10 10 10 11 11 11 11 11 11 11 12 11 10 9 9 10 10 9 9 9 9 9 8 7 8 8 9 9 9 9 9 10 10 12 14 20 24 24 23
9 9 10 10 10 9 8 9 10 11 11 11 11 11 11 12 12 12 12 11 10 11 11 10 10 10 9 9 8 8 9 10 10 8 8 10 10 11 11 14 13 16 20
10 10 9 9 10 8 8 10 11 10 10 10 10 10 10 10 11 12 13 14 14 14 13 13 13 12 11 9 8 10 10 11 11 10 9 12 12 13 12 14 13 14 18
9 9 9 10 9 8 10 10 11 11 10 10 10 10 11 11 10 10 11 12 12 13 13 13 12 12 10 8 7 9 11 12 13 12 11 13 13 13 12 13 14 17 20
8 8 8 9 8 6 8 9 9 8 8 10 10 10 10 11 8 7 10 11 11 10 10 11 10 10 9 9 9 8 10 11 12 12 9 11 12 12 13 13 14 18 21
6 6 5 5 5 5 5 8 9 6 7 8 7 7 7 7 5 6 9 10 11 9 8 7 8 10 11 12 13 11 11 11 11 11 9 9 11 11 13 12 11 11 13
Wind_Direction
176 166 164 171 177 168 173 186 188 177 186 185 203 194 213 191 181 186 137 159 181 190 196 199 200 199 198 197 203 204 202 199 197 193 191 190 189 191 192 191 188 184 183
175 173 171 176 174 177 171 181 174 182 196 180 194 188 214 200 164 195 169 165 181 191 200 206 206 203 203 204 205 209 214 212 208 205 203 202 202 202 203 203 202 198 195
175 180 173 179 175 168 166 178 178 187 192 191 198 195 197 211 180 189 194 191 179 186 195 206 209 207 207 208 208 212 216 216 215 214 213 211 210 210 210 210 211 209 206
184 190 182 181 170 180 181 175 198 195 197 208 195 212 195 194 203 205 204 202 205 192 186 193 203 207 209 211 211 211 215 217 220 222 222 220 218 216 215 215 215 215 214
186 192 191 167 183 186 188 201 174 212 201 212 207 199 217 213 209 210 210 210 201 215 193 177 193 205 211 213 214 214 217 221 224 228 230 230 226 223 221 221 221 220 219
185 189 185 179 191 185 186 187 165 205 233 231 243 205 224 211 217 197 211 199 201 209 208 192 193 197 201 208 212 215 220 225 229 231 232 235 234 229 227 227 227 226 225
184 190 187 179 198 189 190 187 192 184 212 218 229 217 200 203 199 194 215 214 186 195 198 196 214 205 186 195 204 211 220 228 232 232 231 233 235 232 230 232 232 232 231
187 189 191 191 190 182 187 193 209 228 213 213 246 234 214 191 201 191 197 208 205 195 196 194 195 209 231 196 179 197 217 228 232 232 231 232 236 235 234 235 236 236 236
188 189 188 194 186 198 188 198 204 219 222 210 240 259 249 222 173 179 195 199 204 213 212 190 199 194 212 207 184 180 192 211 223 229 233 235 236 236 237 238 240 238 238
185 184 189 193 200 206 186 203 203 214 228 219 199 244 287 331 256 187 189 187 194 211 213 220 193 188 203 207 171 144 171 198 211 223 232 239 242 240 239 240 242 242 242
185 186 189 192 198 207 200 208 189 223 222 237 225 213 221 233 254 263 211 190 196 198 197 211 215 208 198 209 202 153 161 192 212 230 240 242 243 244 244 244 247 249 250
187 188 189 193 199 201 195 202 203 210 232 241 252 240 231 231 232 242 239 222 215 199 200 213 224 220 222 223 194 129 167 195 212 232 247 250 248 250 252 251 253 255 257
189 188 191 193 199 199 199 200 204 219 214 217 233 239 243 249 258 256 260 249 237 214 206 221 219 224 229 224 183 164 189 198 219 234 245 253 257 259 260 259 260 262 262
190 184 190 194 199 199 201 198 209 208 210 216 225 236 244 239 242 248 258 258 244 233 218 224 216 221 236 238 180 207 211 198 223 239 249 255 259 261 263 263 263 263 263
188 186 192 194 198 201 202 200 214 209 208 216 214 209 229 226 233 240 247 257 264 261 242 209 227 215 225 236 200 239 246 208 227 243 249 254 258 261 262 263 263 263 263
192 188 194 195 197 201 201 206 210 208 213 215 223 222 228 230 223 232 238 244 257 270 272 247 225 234 236 252 210 241 252 222 234 238 244 250 256 259 261 261 261 261 262
192 195 196 197 201 204 203 206 218 207 215 216 215 214 220 236 234 231 230 238 243 251 260 262 244 234 233 260 251 253 257 255 250 220 229 245 253 257 259 260 260 259 259
196 199 198 201 205 207 206 208 216 213 217 221 220 220 221 218 223 242 240 240 244 251 257 265 260 245 232 243 252 259 262 258 267 225 221 241 250 254 256 258 258 257 257
198 199 200 205 208 210 210 213 216 217 221 225 225 223 224 223 223 229 235 241 241 238 243 256 257 254 250 244 249 252 257 260 266 252 225 233 242 247 251 253 254 254 255
198 201 204 209 211 213 215 216 216 220 225 228 229 228 229 227 226 229 231 237 244 247 242 250 257 253 249 245 249 259 261 250 258 269 264 255 241 238 244 247 249 250 251
200 202 207 209 212 214 215 214 217 220 223 227 227 229 231 232 234 235 240 234 233 239 245 246 253 256 252 251 255 260 267 271 263 263 267 266 257 252 247 241 241 245 246
202 201 206 208 210 215 192 199 221 227 226 229 231 231 232 226 228 229 245 255 255 246 249 254 257 258 260 260 261 266 271 273 276 269 268 271 272 272 268 265 252 235 237
197 201 206 209 212 211 179 194 210 230 233 233 234 236 241 234 221 232 229 231 242 246 247 254 261 264 267 268 271 269 268 274 278 284 283 277 276 274 272 269 251 241 242
196 200 204 209 213 206 180 193 202 221 236 237 237 239 243 248 239 235 240 238 239 239 236 238 250 259 267 276 271 270 277 274 270 266 261 269 275 276 277 273 252 237 241
197 204 206 211 214 206 180 192 202 222 232 239 240 240 242 243 228 219 241 248 248 247 239 233 242 256 271 273 269 268 268 271 274 275 265 268 276 280 281 278 266 238 235
199 203 205 210 215 223 185 188 206 230 238 242 240 241 236 236 225 212 239 248 251 252 256 248 242 248 253 250 237 239 254 264 271 277 274 268 274 281 282 277 275 272 254
Height
1564 1566 1567 1568 1570 1571 1573 1573 1575 1576 1577 1578 1580 1581 1582 1583 1583 1584 1584 1583 1584 1584 1585 1586 1587 1588 1588 1589 1590 1591 1592 1593 1593 1594 1595 1596 1596 1597 1598 1599 1599 1600 1600
1563 1565 1566 1567 1570 1571 1572 1573 1575 1576 1577 1578 1579 1580 1581 1582 1582 1582 1584 1583 1583 1584 1585 1585 1586 1587 1588 1588 1589 1590 1591 1592 1593 1594 1594 1595 1596 1597 1597 1598 1599 1599 1600
1562 1564 1566 1567 1569 1570 1571 1572 1573 1575 1576 1577 1578 1579 1580 1580 1581 1582 1583 1583 1583 1583 1584 1584 1585 1586 1586 1587 1588 1589 1590 1591 1592 1592 1593 1594 1595 1595 1596 1597 1598 1598 1599
1561 1563 1565 1567 1568 1570 1571 1572 1574 1575 1576 1577 1577 1578 1578 1579 1580 1580 1582 1582 1583 1584 1584 1584 1584 1585 1585 1586 1587 1588 1589 1589 1590 1591 1592 1593 1593 1594 1595 1595 1596 1597 1598
1560 1562 1564 1566 1567 1569 1571 1572 1573 1574 1575 1576 1576 1576 1577 1578 1579 1580 1581 1582 1582 1583 1583 1583 1583 1584 1584 1585 1585 1586 1587 1587 1588 1589 1590 1591 1591 1592 1593 1594 1594 1595 1596
1558 1561 1563 1564 1566 1568 1569 1571 1571 1572 1573 1574 1575 1576 1576 1577 1578 1579 1580 1580 1581 1582 1582 1583 1583 1583 1583 1583 1584 1584 1585 1585 1586 1586 1587 1588 1589 1589 1590 1591 1592 1593 1593
1557 1559 1562 1563 1565 1567 1568 1569 1571 1571 1573 1573 1574 1575 1575 1576 1576 1577 1578 1579 1580 1580 1581 1581 1582 1582 1582 1581 1582 1582 1583 1583 1583 1584 1584 1585 1586 1586 1587 1588 1589 1590 1590
1555 1558 1560 1562 1563 1565 1566 1567 1569 1571 1572 1572 1573 1574 1574 1576 1575 1576 1577 1578 1579 1579 1580 1580 1580 1580 1581 1581 1580 1580 1581 1581 1581 1581 1582 1582 1583 1583 1584 1585 1586 1586 1587
1553 1556 1558 1560 1562 1564 1565 1566 1567 1569 1570 1571 1572 1573 1573 1572 1574 1575 1575 1576 1577 1578 1579 1579 1579 1579 1579 1579 1579 1578 1579 1579 1579 1579 1579 1579 1580 1580 1580 1581 1582 1582 1583
1551 1554 1556 1558 1560 1563 1563 1565 1566 1567 1568 1570 1570 1570 1572 1571 1572 1573 1574 1575 1576 1576 1577 1578 1579 1578 1578 1578 1577 1577 1577 1577 1577 1577 1577 1577 1577 1577 1577 1577 1578 1578 1579
1549 1552 1554 1556 1558 1560 1561 1563 1563 1565 1567 1568 1569 1570 1570 1571 1572 1572 1572 1574 1575 1576 1576 1576 1577 1577 1577 1577 1576 1576 1575 1575 1575 1575 1575 1574 1574 1574 1574 1574 1574 1574 1575
1546 1549 1551 1553 1556 1558 1559 1560 1562 1563 1564 1566 1567 1568 1569 1570 1571 1571 1571 1572 1573 1574 1574 1575 1575 1575 1576 1576 1575 1574 1573 1573 1573 1573 1572 1572 1571 1571 1571 1570 1570 1570 1570
1544 1546 1549 1551 1553 1555 1557 1559 1560 1561 1562 1563 1564 1566 1568 1568 1569 1570 1570 1571 1571 1572 1572 1573 1573 1573 1574 1574 1572 1571 1571 1571 1571 1570 1570 1569 1569 1568 1567 1567 1567 1566 1566
1541 1543 1546 1548 1551 1553 1555 1556 1558 1559 1560 1561 1563 1563 1565 1566 1567 1568 1569 1569 1569 1570 1570 1571 1571 1571 1571 1571 1570 1569 1569 1568 1568 1567 1567 1566 1565 1565 1564 1563 1563 1562 1562
1538 1540 1543 1545 1548 1550 1552 1554 1556 1557 1558 1559 1561 1561 1562 1564 1565 1566 1567 1567 1568 1567 1567 1567 1568 1567 1567 1567 1566 1566 1566 1565 1564 1564 1563 1562 1562 1561 1560 1559 1559 1558 1558
1535 1537 1540 1543 1545 1548 1550 1551 1553 1554 1555 1556 1558 1559 1560 1562 1562 1563 1564 1565 1565 1566 1565 1565 1565 1565 1564 1565 1563 1563 1562 1561 1560 1560 1559 1558 1558 1557 1556 1555 1555 1554 1554
1531 1534 1537 1540 1542 1545 1547 1548 1551 1552 1553 1554 1555 1556 1557 1558 1559 1561 1561 1562 1562 1562 1562 1562 1562 1561 1560 1560 1560 1559 1559 1558 1558 1556 1555 1554 1553 1552 1552 1551 1550 1550 1549
1528 1531 1534 1537 1539 1542 1544 1545 1547 1549 1550 1551 1552 1553 1554 1555 1555 1557 1558 1558 1559 1559 1559 1559 1559 1558 1556 1556 1555 1554 1555 1555 1554 1552 1550 1549 1548 1547 1547 1546 1545 1544 1544
1525 1528 1530 1533 1536 1539 1540 1542 1543 1545 1547 1548 1549 1550 1550 1551 1552 1553 1553 1555 1555 1555 1555 1555 1555 1554 1553 1553 1551 1551 1550 1549 1549 1548 1546 1544 1543 1542 1541 1540 1539 1539 1538
1522 1524 1527 1530 1533 1535 1536 1538 1540 1541 1542 1544 1545 1545 1546 1547 1548 1549 1549 1549 1550 1551 1551 1550 1550 1550 1549 1548 1547 1547 1546 1545 1544 1544 1542 1540 1538 1536 1535 1534 1533 1532 1532
1519 1521 1524 1526 1529 1531 1532 1534 1536 1537 1538 1539 1540 1541 1541 1542 1543 1544 1545 1545 1546 1546 1546 1546 1546 1545 1545 1544 1544 1543 1542 1541 1539 1538 1537 1535 1534 1532 1530 1528 1526 1526 1525
1516 1518 1520 1522 1524 1526 1528 1529 1531 1532 1533 1534 1535 1536 1536 1537 1537 1538 1539 1540 1540 1540 1541 1541 1540 1540 1539 1539 1538 1537 1537 1536 1534 1534 1532 1530 1529 1526 1525 1523 1522 1519 1518
1512 1514 1516 1518 1520 1522 1523 1525 1526 1527 1528 1529 1530 1530 1532 1532 1532 1532 1532 1533 1533 1534 1534 1534 1534 1533 1533 1533 1532 1532 1531 1529 1528 1527 1525 1522 1522 1520 1518 1516 1514 1512 1511
1509 1511 1512 1514 1515 1517 1518 1520 1521 1522 1523 1523 1524 1524 1525 1526 1526 1526 1526 1526 1526 1527 1527 1527 1526 1526 1527 1526 1525 1525 1523 1522 1519 1519 1518 1515 1514 1512 1510 1509 1506 1504 1502
1506 1508 1509 1510 1511 1512 1513 1515 1516 1516 1517 1517 1518 1518 1518 1519 1519 1520 1520 1520 1520 1520 1520 1520 1519 1519 1519 1518 1518 1518 1517 1515 1513 1512 1511 1509 1506 1504 1503 1501 1499 1496 1494
1502 1504 1506 1506 1507 1508 1509 1510 1511 1511 1512 1512 1512 1512 1512 1512 1512 1513 1513 1513 1513 1513 1513 1513 1512 1511 1511 1510 1510 1509 1509 1508 1506 1505 1504 1502 1500 1498 1495 1493 1492 1490 1487